Location: Unspecified
(51.3762°N, 0.0000°E)
Time: 11:28:23
(UTC+00:00)

Tiangong 2 - Pass Details

Date: 21 May 2019
Orbit: 376 x 388 km, 42.8° (Epoch: 25 June)

Event Time Altitude Azimuth Distance (km) Brightness Sun altitude
Rises 21:32:22 0° 236° (SW) 2,231 4.9 -11.7°
Reaches altitude 10° 21:34:56 10° 213° (SSW) 1,381 3.6 -11.9°
Enters shadow 21:36:22 15° 187° (S) 1,108 2.9 -12.0°
